Theta_e
344 333 337 339 340 341 342 343 342 342 340 339 338 336 335 334 336 337 339 341 341 341 343 341 340 340 341 341 339 339 339 339 339 339 339 339 339 337 337 339 338 338 337
337 329 333 335 337 339 341 342 342 342 341 340 338 336 335 336 339 340 340 341 342 344 344 341 340 339 337 334 335 337 338 338 338 338 339 339 338 338 338 338 337 338 337
337 328 331 333 334 336 341 341 341 342 342 341 339 336 335 337 340 341 341 342 343 344 344 342 339 337 334 335 336 337 337 337 337 337 338 339 338 338 337 336 337 336 336
341 328 330 331 331 332 336 340 340 341 341 341 340 337 336 337 339 340 341 342 343 343 342 342 343 340 335 336 336 337 337 336 335 337 338 337 338 336 336 336 336 336 335
342 336 330 329 331 332 334 337 339 340 341 342 341 339 337 338 338 339 341 342 343 343 341 342 341 340 336 336 336 337 336 335 337 337 337 336 337 334 334 334 334 334 333
341 343 329 328 329 332 334 337 338 339 340 342 342 341 338 338 339 339 340 342 343 341 340 341 341 339 336 336 336 336 335 336 336 336 335 335 333 335 334 334 334 332 332
340 343 337 329 329 332 336 337 337 338 341 347 344 342 340 339 339 339 339 341 340 339 340 340 339 337 336 336 336 335 335 335 335 335 335 335 334 336 334 333 332 331 330
343 344 340 336 331 332 335 336 337 338 341 344 345 343 340 340 339 339 339 340 340 338 339 337 337 337 336 336 335 335 335 334 335 334 335 333 334 336 334 331 331 330 328
342 347 344 338 335 332 336 337 338 337 345 344 344 344 342 341 340 338 338 339 338 338 337 337 336 337 336 335 334 335 335 333 334 334 333 333 334 334 331 329 327 326 325
342 345 346 341 338 334 336 338 337 337 345 343 344 344 344 342 340 339 337 337 337 338 337 335 333 332 335 335 334 334 334 333 333 333 332 331 331 332 330 328 326 325 324
346 346 348 345 343 342 340 338 337 338 340 344 343 344 341 341 340 339 337 336 336 335 334 333 331 330 332 332 333 334 333 332 332 332 332 329 329 330 329 325 324 323 323
347 348 348 346 345 344 344 343 337 339 339 341 343 342 341 340 338 338 336 335 335 333 334 332 327 325 330 330 332 332 331 332 331 331 330 327 328 328 326 323 322 321 322
347 348 348 346 345 345 343 343 341 341 340 340 341 341 340 339 338 339 337 335 334 333 332 330 326 325 326 330 330 330 331 331 330 330 328 326 327 327 325 323 322 322 321
344 348 346 347 346 345 343 344 342 342 340 341 340 341 340 338 339 337 336 334 334 332 331 328 328 327 326 330 329 330 331 330 329 329 326 326 326 326 324 323 322 323 319
327 345 347 346 346 347 343 342 343 342 341 342 342 341 340 339 339 337 336 334 332 331 328 328 326 326 326 327 328 328 330 329 328 328 326 326 324 322 323 323 322 321 321
322 329 348 346 345 346 343 344 341 342 343 342 340 341 339 339 338 337 335 334 332 329 329 327 327 325 325 327 328 328 329 328 328 328 325 325 323 322 321 321 322 320 320
320 323 349 346 344 346 344 345 343 341 341 342 341 339 338 338 337 335 334 333 333 331 329 329 329 326 326 327 326 327 329 328 327 326 323 323 322 321 320 321 321 322 320
320 322 342 347 344 345 345 344 341 343 340 339 339 340 338 338 336 335 334 333 332 331 329 329 328 328 327 327 325 327 328 325 323 323 323 320 322 321 320 320 322 319 319
319 321 325 347 346 344 344 342 340 339 340 338 337 337 339 338 336 334 332 332 331 329 328 328 328 328 328 326 323 326 326 324 323 323 322 322 322 322 320 320 321 320 319
320 319 325 346 345 343 342 340 340 339 338 339 338 335 336 336 335 333 332 331 330 329 329 329 328 328 327 326 326 326 324 323 322 322 322 323 322 321 320 321 321 320 319
321 320 324 340 345 343 342 340 339 338 337 336 337 337 335 333 332 331 331 330 330 329 329 328 327 327 327 325 326 324 323 321 321 322 323 322 322 321 322 322 320 320 319
321 321 326 335 345 342 340 339 337 336 336 335 333 334 334 333 331 330 331 330 329 329 328 328 327 326 326 326 325 323 323 323 322 320 323 323 321 321 321 322 320 319 320
323 322 325 330 344 342 340 337 336 335 335 335 334 332 331 331 329 328 330 330 329 328 327 327 327 325 326 325 325 323 323 323 322 323 321 320 322 323 321 321 322 320 320
324 323 323 327 332 342 338 337 337 338 335 333 332 331 329 328 328 328 329 329 329 328 327 327 327 325 325 325 325 323 321 322 321 322 323 321 321 321 321 321 323 321 320
321 325 324 326 330 341 338 337 337 337 333 331 331 330 329 328 329 329 328 328 328 327 327 326 326 325 325 325 325 324 321 323 322 321 321 322 322 321 320 321 321 320 320
320 324 327 329 332 339 338 337 339 335 334 333 331 332 330 328 327 326 327 328 327 327 326 326 326 325 324 324 324 324 322 324 323 322 321 320 322 322 321 321 320 322 320
Wind_Speed
20 25 19 17 15 15 15 16 16 16 15 14 13 13 12 12 13 14 15 16 18 19 19 20 19 15 10 10 10 12 14 16 19 21 23 24 24 26 25 26 25 27 27
25 24 20 18 16 14 15 16 17 16 15 14 13 14 14 14 15 15 16 17 18 17 17 19 17 15 13 11 12 14 16 19 21 23 26 25 24 23 24 26 26 28 28
25 24 21 18 16 15 15 16 16 16 16 15 15 16 15 16 16 16 17 18 19 18 17 16 17 16 15 15 17 18 19 19 21 21 23 21 23 23 24 26 28 28 29
22 24 22 20 18 16 16 15 15 16 16 16 16 17 17 17 17 17 18 19 18 17 17 16 15 16 17 18 18 18 18 20 21 20 21 20 20 23 25 28 27 27 26
19 22 21 20 19 18 17 16 15 15 16 17 17 17 18 18 18 19 19 20 20 17 17 17 16 16 19 19 18 18 18 20 19 18 20 21 21 22 23 24 24 23 22
21 19 20 19 17 17 16 16 15 14 15 16 17 17 19 20 20 20 21 22 21 17 18 20 19 18 19 19 19 18 19 19 15 18 20 21 22 23 23 23 24 23 22
21 20 16 16 16 16 16 15 15 15 15 17 17 19 20 21 21 19 20 22 20 18 20 19 19 19 20 19 19 19 21 15 19 19 23 22 24 23 23 24 23 22 20
18 15 16 16 15 15 15 15 15 15 15 17 17 19 21 22 21 21 23 23 21 20 21 19 18 20 21 21 20 21 20 14 17 17 22 22 23 23 22 22 20 19 18
17 12 13 17 16 15 15 15 16 15 16 17 17 19 21 21 21 23 24 23 21 21 21 20 19 20 22 22 21 23 19 14 19 21 22 23 21 21 21 21 19 15 15
16 14 12 14 15 16 17 16 15 14 16 16 18 19 18 19 20 22 22 23 21 21 21 18 15 16 19 21 22 23 18 18 18 20 19 21 18 18 18 17 17 15 15
17 17 16 16 16 15 13 16 16 15 15 16 18 19 17 18 19 21 22 22 19 17 14 13 11 11 15 17 21 25 18 15 17 20 20 20 17 16 17 16 15 16 16
19 20 20 19 19 18 17 14 17 16 17 17 17 19 21 19 17 20 22 22 21 21 20 20 23 13 10 16 20 23 16 18 18 17 20 19 18 17 17 17 16 17 18
24 23 21 22 21 21 19 19 16 17 16 16 17 17 17 17 17 19 22 25 23 25 24 23 18 19 16 18 21 22 17 18 18 17 20 19 19 17 17 17 17 17 18
30 31 30 25 23 24 20 21 20 20 19 20 20 20 18 20 20 20 20 22 30 30 29 26 19 18 18 20 23 25 18 21 21 16 22 20 19 18 16 17 18 18 17
21 33 37 35 27 26 24 22 21 21 22 21 21 23 21 20 20 21 21 24 29 31 30 29 26 25 24 26 25 24 20 20 21 23 24 22 21 15 18 17 18 18 18
25 24 42 37 35 30 30 23 27 22 21 24 24 23 24 21 19 22 24 25 26 30 29 28 27 26 29 28 25 25 20 23 21 23 26 23 18 18 19 18 18 19 17
30 25 39 38 37 31 30 26 23 26 24 22 21 24 25 24 21 23 24 27 32 30 32 28 32 28 31 26 24 25 24 20 22 23 26 25 19 18 20 20 19 19 18
30 29 29 35 35 33 30 28 26 22 26 29 24 21 24 27 24 25 25 24 27 24 24 25 30 27 31 30 28 26 25 20 21 32 26 24 22 21 19 19 20 16 17
33 31 28 36 36 36 31 30 29 25 23 24 28 28 24 24 27 26 27 28 27 26 27 28 28 26 36 30 30 26 23 22 23 20 22 23 21 21 22 21 20 17 16
31 35 31 32 38 34 28 30 27 26 25 24 25 27 27 26 27 28 28 28 30 27 27 27 25 26 29 29 24 27 24 22 21 20 26 23 22 20 20 21 20 18 18
23 24 29 31 34 32 27 27 25 26 24 25 26 23 25 26 27 29 26 28 29 29 33 29 28 30 25 28 25 22 18 25 24 19 26 23 23 23 20 20 22 20 20
21 22 22 29 35 31 28 27 23 22 23 22 25 28 28 27 28 30 29 29 29 30 33 29 30 24 23 32 16 17 4 11 20 25 23 25 26 27 24 22 18 19 21
25 22 21 23 33 30 26 23 21 23 20 22 23 24 27 27 29 30 32 30 31 28 25 33 33 31 25 27 26 19 4 4 7 12 20 21 24 29 26 26 24 22 24
24 27 24 23 23 32 29 26 28 24 19 16 20 21 23 26 29 31 30 32 32 32 34 36 38 39 27 23 28 27 18 18 7 3 11 22 24 25 22 24 25 23 22
18 25 28 26 24 32 32 28 29 24 20 16 19 22 23 23 26 29 30 32 33 32 35 35 35 35 34 25 24 24 24 24 26 8 4 10 18 26 25 20 21 25 24
19 19 30 26 22 30 29 32 28 26 20 20 23 21 23 24 26 29 30 34 36 35 37 39 35 39 38 30 27 24 25 15 18 16 4 15 16 25 26 25 26 21 27
Wind_Direction
130 144 154 156 157 159 164 168 171 175 178 182 183 178 172 164 159 155 152 149 147 146 146 147 147 148 152 144 138 133 126 122 118 116 112 110 110 112 112 112 114 112 112
138 147 158 162 164 168 172 176 178 181 185 189 189 184 177 171 166 161 158 154 151 150 149 153 153 153 152 144 140 137 130 125 120 116 114 111 113 112 115 118 117 114 112
139 151 161 166 168 173 180 184 185 187 190 194 195 189 184 179 175 170 167 162 159 157 154 154 152 152 148 137 136 134 131 126 120 114 110 112 118 120 124 121 120 118 113
143 154 163 166 172 176 183 190 191 193 195 198 199 194 191 186 180 178 177 170 165 164 161 157 151 150 147 144 141 138 131 126 120 117 120 118 120 127 127 123 123 117 115
146 152 166 168 171 173 178 184 192 196 198 200 202 199 196 189 185 188 180 174 172 170 162 156 157 161 153 149 147 142 137 130 123 129 123 127 123 127 126 122 119 118 118
151 158 164 167 170 172 174 179 186 192 199 200 203 201 199 194 192 190 182 179 179 175 165 161 164 165 159 156 153 147 142 133 128 136 129 126 127 124 123 125 124 123 119
152 174 172 172 171 173 175 178 182 189 194 187 196 201 205 200 197 191 189 188 183 180 172 172 169 169 165 163 158 153 143 134 137 133 129 131 133 124 129 131 130 127 124
154 160 181 179 175 175 178 181 182 186 189 189 194 202 203 204 198 194 195 191 186 186 181 177 180 176 171 166 162 154 148 137 141 136 131 132 129 124 127 132 131 127 123
151 163 186 177 174 175 183 184 185 192 183 189 196 201 207 207 200 198 198 194 194 190 185 185 188 181 177 169 164 159 152 145 144 133 132 135 134 128 129 132 127 119 116
165 167 188 177 179 178 188 186 191 197 184 188 196 201 211 207 208 204 202 200 195 194 191 192 190 181 184 175 164 165 161 143 145 136 138 144 139 134 135 135 135 137 136
171 177 178 179 181 180 187 192 191 195 192 190 197 200 200 209 209 206 206 201 197 193 197 189 165 179 200 187 175 172 161 159 160 149 152 153 149 145 143 141 148 143 138
184 187 187 185 182 180 178 194 192 197 197 198 199 205 205 208 205 208 204 201 196 189 186 180 160 167 212 203 187 179 167 161 154 152 151 151 148 146 142 146 150 144 140
198 191 189 191 189 184 182 189 183 191 195 202 199 198 210 200 201 195 202 199 192 187 179 165 170 174 190 208 202 187 178 158 152 153 151 154 150 150 146 144 146 148 148
197 191 189 191 193 190 189 181 181 187 192 198 201 200 197 196 196 194 198 191 185 182 179 179 191 202 191 206 205 193 180 170 154 165 158 162 154 151 151 154 152 152 150
238 193 182 186 191 192 191 191 187 191 191 194 194 199 198 193 192 191 182 179 184 186 190 187 191 193 196 207 215 194 185 171 170 168 161 163 164 162 163 161 158 157 155
234 223 185 194 187 191 195 195 192 195 189 194 197 194 199 196 199 190 182 183 190 199 194 193 198 197 203 205 203 196 188 182 176 168 165 167 170 161 170 166 164 161 162
242 235 177 193 187 185 192 199 192 202 194 183 184 198 203 203 201 195 189 189 196 201 201 203 201 206 201 200 192 204 189 184 169 168 166 164 169 169 173 174 171 168 170
234 229 188 182 186 186 190 195 202 197 200 201 192 191 201 204 202 194 195 195 202 199 204 206 209 207 198 197 194 204 189 174 155 159 159 163 172 177 175 181 179 178 180
230 226 207 178 180 185 191 198 204 201 197 194 202 200 193 201 201 202 202 202 195 194 202 213 213 213 179 187 191 203 188 168 169 151 157 167 178 182 184 188 184 184 189
220 226 207 174 180 184 184 196 203 205 206 200 197 205 202 209 208 214 207 207 201 205 199 203 198 179 177 183 192 200 164 158 163 185 172 171 175 182 189 190 186 191 198
234 226 207 172 172 170 180 184 194 196 199 206 200 191 200 205 209 210 214 207 209 200 195 196 189 179 186 185 191 153 154 160 175 166 168 177 185 188 187 195 196 195 202
223 229 193 176 167 175 184 198 196 194 201 205 208 213 215 215 217 212 207 206 201 207 181 190 183 183 190 190 189 151 139 133 174 184 187 185 187 185 189 197 205 202 212
214 218 182 177 168 177 179 185 189 196 202 201 200 211 217 217 218 217 211 210 208 200 192 187 186 182 186 197 191 161 141 172 148 189 191 193 184 184 189 196 200 205 212
203 206 192 186 190 180 176 185 193 192 187 193 191 205 223 222 224 221 220 209 202 191 185 193 192 188 190 192 190 178 164 162 161 159 215 195 200 194 199 199 201 204 207
228 198 189 189 198 169 178 193 200 192 186 188 210 214 215 212 208 213 217 212 209 202 194 193 190 186 193 190 183 182 181 168 176 153 174 213 197 196 209 212 209 215 217
224 207 180 180 189 169 182 203 202 182 184 195 192 192 199 211 219 224 219 215 206 198 193 192 193 190 192 193 194 188 191 176 184 170 165 193 195 197 203 212 217 219 216